Home   Weather   Gorgan   Past weeks

Flag for Iran Past Weather in Gorgan, Iran — Yesterday and Last 2 Weeks

Now
32 °F

Light rain. Mostly cloudy.


Feels Like: 23 °F
Forecast: 35 / 54 °F
Wind: 12 mph from Northeast

Location: Gorgan Airport

Current Time: Dec 9, 2016 at 5:43:58 am

Latest Report: Dec 9, 2016 at 4:30 am


Visibility: 2 mi

Pressure: 30.45 "Hg

Humidity: 93%

Dew Point: 30 °F

Location of GorganLocation

Past Weather in Gorgan — Graph

°F

Gorgan Temperature Yesterday

Maximum temperature yesterday: 50 °F (at 11:00 am)
Minimum temperature yesterday: 34 °F (at 1:00 am)
Average temperature yesterday: 39 °F

High & Low Weather Summary for the Past Weeks

 TemperatureHumidityPressure
High75 °F (Nov 30, 2:30 pm)100% (Nov 25, 8:30 am)30.83 "Hg (Nov 25, 8:30 am)
Low23 °F (Nov 24, 11:30 pm)25% (Nov 30, 2:30 pm)29.53 "Hg (Dec 2, 1:30 pm)
Average45 °F82%30.20 "Hg
* Reported Nov 24 4:30 am — Dec 9 4:30 am, Gorgan, Weather by CustomWeather, © 2016

Note: Actual official high and low records may vary slightly from our data, if they occured in-between our weather recording intervals... More about our weather records

Advertising

Gorgan Weather History for the Previous 24 Hours

Scroll right to see more
 ConditionsComfort  
Time TempWeatherWind HumidityBarometerVisibility
4:30 am
Fri, Dec 9
32 °FLight rain. Mostly cloudy.12 mph93%30.45 "Hg2 mi
3:30 am34 °FFog.No wind93%30.48 "Hg3 mi
2:30 am34 °FFog.12 mph93%30.51 "Hg2 mi
1:30 am34 °FFog.12 mph100%30.51 "Hg2 mi
12:30 am36 °FFog.7 mph93%30.51 "Hg1 mi
12:00 am36 °FFog.7 mph93%30.54 "Hg2 mi
11:30 pm
Thu, Dec 8
36 °FLight rain. Fog.No wind93%30.54 "Hg2 mi
11:00 pm36 °FLight rain. Mostly cloudy.No wind93%30.54 "Hg1 mi
10:30 pm34 °FLight rain. Mostly cloudy.No wind100%30.57 "Hg2 mi
10:00 pm34 °FLight rain. Mostly cloudy.No wind100%30.57 "Hg1 mi
9:30 pm34 °FLight rain. Mostly cloudy.7 mph93%30.57 "Hg1 mi
9:00 pm34 °FLight rain. Mostly cloudy.7 mph93%30.57 "Hg1 mi
8:30 pm34 °FLight rain. Mostly cloudy.7 mph93%30.57 "Hg1 mi
7:30 pm36 °FRain. Mostly cloudy.14 mph93%30.57 "Hg3 mi
6:30 pm37 °FLight rain. Fog.16 mph87%30.51 "Hg3 mi
6:00 pm37 °FLight rain. Fog.9 mph93%30.51 "Hg3 mi
5:30 pm39 °FLight rain. Fog.9 mph87%30.51 "Hg2 mi
5:00 pm39 °FRain. Fog.5 mph93%30.48 "Hg2 mi
4:30 pm39 °FLight rain. Fog.9 mph93%30.48 "Hg2 mi
4:00 pm41 °FLight rain. Fog.9 mph87%30.45 "Hg2 mi
3:30 pm41 °FFog.16 mph87%30.39 "Hg3 mi
2:30 pm45 °FMore clouds than sun.18 mph87%30.36 "HgN/A
2:00 pm45 °FMore clouds than sun.21 mph87%30.36 "Hg5 mi
1:30 pm50 °FOvercast.7 mph82%30.33 "Hg5 mi
12:30 pm50 °FBroken clouds.9 mph76%30.33 "HgN/A
11:30 am50 °FBroken clouds.7 mph82%30.36 "HgN/A
11:00 am50 °FBroken clouds.9 mph82%30.36 "HgN/A
10:30 am48 °FBroken clouds.9 mph94%30.36 "HgN/A
9:30 am43 °FScattered clouds.7 mph93%30.39 "HgN/A
8:30 am41 °FBroken clouds.7 mph100%30.39 "HgN/A
8:00 am37 °FBroken clouds.7 mph93%30.39 "HgN/A
7:30 am34 °FBroken clouds.No wind93%30.36 "HgN/A
6:30 am34 °FPassing clouds.No wind100%30.30 "HgN/A
5:30 am34 °FClear.No wind93%30.27 "Hg10 mi
Weather by CustomWeather, © 2016

See weather overviewHow to use our weather pages